Time,TemperatureF,DewpointF,PressureIn,WindDirection,WindDirectionDegrees,WindSpeedMPH,WindSpeedGustMPH,Humidity,HourlyPrecipIn,Conditions,Clouds,dailyrainin,SoftwareType,DateUTC
2013-04-07 00:00:00,30.6,13.1,30.34,NNE,23,0.0,0.2,48,0.00,,,0.00,WUHU216HW,2013-04-07 04:00:00,
2013-04-07 00:01:00,30.8,13.3,30.34,NNE,23,0.0,0.0,48,0.00,,,0.00,WUHU216HW,2013-04-07 04:01:00,
2013-04-07 00:06:00,30.6,13.7,30.34,NNE,23,1.6,1.6,49,0.00,,,0.00,WUHU216HW,2013-04-07 04:06:00,
2013-04-07 00:11:00,30.4,14.4,30.34,NNE,23,1.1,1.8,51,0.00,,,0.00,WUHU216HW,2013-04-07 04:11:00,
2013-04-07 00:16:00,30.2,14.7,30.34,NNE,23,0.0,1.8,52,0.00,,,0.00,WUHU216HW,2013-04-07 04:16:00,
2013-04-07 00:22:00,30.2,14.3,30.34,NNE,23,0.7,1.1,51,0.00,,,0.00,WUHU216HW,2013-04-07 04:22:00,
2013-04-07 00:27:00,30.1,14.5,30.34,NNE,23,0.4,0.7,52,0.00,,,0.00,WUHU216HW,2013-04-07 04:27:00,
2013-04-07 00:32:00,29.9,14.0,30.33,NNE,23,1.1,1.1,51,0.00,,,0.00,WUHU216HW,2013-04-07 04:32:00,
2013-04-07 00:37:00,29.9,14.4,30.33,NNE,23,0.7,1.3,52,0.00,,,0.00,WUHU216HW,2013-04-07 04:37:00,
2013-04-07 00:42:00,29.9,14.4,30.34,NNE,23,0.0,1.3,52,0.00,,,0.00,WUHU216HW,2013-04-07 04:42:00,
2013-04-07 00:47:00,29.9,14.4,30.33,North,0,1.1,1.8,52,0.00,,,0.00,WUHU216HW,2013-04-07 04:47:00,
2013-04-07 00:52:00,29.7,14.2,30.33,NNE,23,0.4,1.8,52,0.00,,,0.00,WUHU216HW,2013-04-07 04:52:00,
2013-04-07 00:57:00,29.7,14.2,30.33,North,0,0.4,1.1,52,0.00,,,0.00,WUHU216HW,2013-04-07 04:57:00,
2013-04-07 01:02:00,29.5,14.0,30.33,North,0,1.1,1.1,52,0.00,,,0.00,WUHU216HW,2013-04-07 05:02:00,
2013-04-07 01:07:00,29.5,14.0,30.33,NE,45,0.4,1.3,52,0.00,,,0.00,WUHU216HW,2013-04-07 05:07:00,
2013-04-07 01:12:00,29.3,14.3,30.33,NE,45,0.2,1.3,53,0.00,,,0.00,WUHU216HW,2013-04-07 05:12:00,
2013-04-07 01:17:00,29.3,14.3,30.33,NE,45,0.0,0.9,53,0.00,,,0.00,WUHU216HW,2013-04-07 05:17:00,
2013-04-07 01:22:00,29.2,13.7,30.33,NE,45,0.0,0.2,52,0.00,,,0.00,WUHU216HW,2013-04-07 05:22:00,
2013-04-07 01:27:00,29.2,13.7,30.33,NE,45,0.4,0.4,52,0.00,,,0.00,WUHU216HW,2013-04-07 05:27:00,
2013-04-07 01:32:00,29.2,14.1,30.32,NE,45,0.0,0.7,53,0.00,,,0.00,WUHU216HW,2013-04-07 05:32:00,
2013-04-07 01:37:00,29.2,14.6,30.32,NE,45,0.2,0.7,54,0.00,,,0.00,WUHU216HW,2013-04-07 05:37:00,
2013-04-07 01:42:00,29.0,14.4,30.32,NE,45,0.0,0.4,54,0.00,,,0.00,WUHU216HW,2013-04-07 05:42:00,
2013-04-07 01:47:00,29.0,14.8,30.31,NE,45,1.1,1.3,55,0.00,,,0.00,WUHU216HW,2013-04-07 05:47:00,
2013-04-07 01:52:00,28.8,14.7,30.31,NE,45,0.9,1.3,55,0.00,,,0.00,WUHU216HW,2013-04-07 05:52:00,
2013-04-07 01:57:00,28.6,14.9,30.31,NNE,23,2.2,2.7,56,0.00,,,0.00,WUHU216HW,2013-04-07 05:57:00,
2013-04-07 02:02:00,28.4,14.8,30.31,NNE,23,0.4,2.7,56,0.00,,,0.00,WUHU216HW,2013-04-07 06:02:00,
2013-04-07 02:07:00,28.4,14.8,30.31,NNE,23,0.2,1.6,56,0.00,,,0.00,WUHU216HW,2013-04-07 06:07:00,
2013-04-07 02:12:00,28.4,15.1,30.30,NNE,23,1.1,1.1,57,0.00,,,0.00,WUHU216HW,2013-04-07 06:12:00,
2013-04-07 02:17:00,28.4,15.1,30.30,North,0,0.2,1.1,57,0.00,,,0.00,WUHU216HW,2013-04-07 06:17:00,
2013-04-07 02:22:00,28.3,14.9,30.30,North,0,0.4,1.1,57,0.00,,,0.00,WUHU216HW,2013-04-07 06:22:00,
2013-04-07 02:27:00,28.3,14.9,30.30,WNW,293,0.0,1.1,57,0.00,,,0.00,WUHU216HW,2013-04-07 06:27:00,
2013-04-07 02:32:00,28.4,15.1,30.30,WNW,293,0.0,0.7,57,0.00,,,0.00,WUHU216HW,2013-04-07 06:32:00,
2013-04-07 02:37:00,28.4,15.1,30.30,WNW,293,0.2,0.2,57,0.00,,,0.00,WUHU216HW,2013-04-07 06:37:00,
2013-04-07 02:42:00,28.4,14.8,30.30,North,0,1.1,1.1,56,0.00,,,0.00,WUHU216HW,2013-04-07 06:42:00,
2013-04-07 02:47:00,28.3,15.4,30.29,North,0,0.7,1.1,58,0.00,,,0.00,WUHU216HW,2013-04-07 06:47:00,
2013-04-07 02:52:00,28.3,15.8,30.29,NNE,23,1.8,1.8,59,0.00,,,0.00,WUHU216HW,2013-04-07 06:52:00,
2013-04-07 02:57:00,28.1,16.4,30.29,NNE,23,1.1,1.8,61,0.00,,,0.00,WUHU216HW,2013-04-07 06:57:00,
2013-04-07 03:02:00,28.1,16.0,30.29,North,0,0.0,1.8,60,0.00,,,0.00,WUHU216HW,2013-04-07 07:02:00,
2013-04-07 03:07:00,27.9,15.8,30.29,North,0,0.0,0.9,60,0.00,,,0.00,WUHU216HW,2013-04-07 07:07:00,
2013-04-07 03:12:00,27.9,15.4,30.29,North,0,0.0,0.9,59,0.00,,,0.00,WUHU216HW,2013-04-07 07:12:00,
2013-04-07 03:17:00,28.1,16.0,30.29,North,0,0.0,0.2,60,0.00,,,0.00,WUHU216HW,2013-04-07 07:17:00,
2013-04-07 03:22:00,28.1,15.6,30.29,North,0,0.0,0.0,59,0.00,,,0.00,WUHU216HW,2013-04-07 07:22:00,
2013-04-07 03:27:00,28.1,15.6,30.29,North,0,0.9,1.1,59,0.00,,,0.00,WUHU216HW,2013-04-07 07:27:00,
2013-04-07 03:33:00,27.9,15.8,30.28,North,0,0.4,1.1,60,0.00,,,0.00,WUHU216HW,2013-04-07 07:33:00,
2013-04-07 03:38:00,27.9,15.8,30.28,North,0,1.8,1.8,60,0.00,,,0.00,WUHU216HW,2013-04-07 07:38:00,
2013-04-07 03:43:00,27.7,16.0,30.28,NNE,23,1.1,1.8,61,0.00,,,0.00,WUHU216HW,2013-04-07 07:43:00,
2013-04-07 03:48:00,27.7,16.4,30.28,NNE,23,0.4,1.8,62,0.00,,,0.00,WUHU216HW,2013-04-07 07:48:00,
2013-04-07 03:53:00,27.5,15.8,30.28,NNE,23,0.4,1.8,61,0.00,,,0.00,WUHU216HW,2013-04-07 07:53:00,
2013-04-07 03:58:00,27.5,16.2,30.28,NNE,23,0.4,1.1,62,0.00,,,0.00,WUHU216HW,2013-04-07 07:58:00,
2013-04-07 04:03:00,27.4,16.0,30.28,NNE,23,0.4,1.1,62,0.00,,,0.00,WUHU216HW,2013-04-07 08:03:00,
2013-04-07 04:08:00,27.4,16.0,30.28,NNE,23,0.4,1.1,62,0.00,,,0.00,WUHU216HW,2013-04-07 08:08:00,
2013-04-07 04:13:00,27.2,15.8,30.28,NNE,23,0.4,1.1,62,0.00,,,0.00,WUHU216HW,2013-04-07 08:13:00,
2013-04-07 04:18:00,27.0,15.7,30.28,NNE,23,2.2,2.7,62,0.00,,,0.00,WUHU216HW,2013-04-07 08:18:00,
2013-04-07 04:23:00,27.0,15.7,30.28,NNE,23,0.4,2.7,62,0.00,,,0.00,WUHU216HW,2013-04-07 08:23:00,
2013-04-07 04:28:00,27.0,15.7,30.27,NNE,23,0.0,2.2,62,0.00,,,0.00,WUHU216HW,2013-04-07 08:28:00,
2013-04-07 04:33:00,27.0,15.7,30.28,North,0,1.1,1.6,62,0.00,,,0.00,WUHU216HW,2013-04-07 08:33:00,
2013-04-07 04:38:00,26.8,15.8,30.28,NNE,23,0.7,1.6,63,0.00,,,0.00,WUHU216HW,2013-04-07 08:38:00,
2013-04-07 04:43:00,26.8,15.8,30.28,NNE,23,0.2,1.1,63,0.00,,,0.00,WUHU216HW,2013-04-07 08:43:00,
2013-04-07 04:48:00,26.8,15.8,30.28,North,0,0.0,0.7,63,0.00,,,0.00,WUHU216HW,2013-04-07 08:48:00,
2013-04-07 04:53:00,26.8,15.8,30.28,North,0,0.0,0.7,63,0.00,,,0.00,WUHU216HW,2013-04-07 08:53:00,
2013-04-07 04:58:00,27.0,15.7,30.28,North,0,0.0,0.4,62,0.00,,,0.00,WUHU216HW,2013-04-07 08:58:00,
2013-04-07 05:03:00,27.0,15.7,30.28,NNE,23,0.4,0.4,62,0.00,,,0.00,WUHU216HW,2013-04-07 09:03:00,
2013-04-07 05:08:00,27.0,15.7,30.28,NNE,23,0.0,0.4,62,0.00,,,0.00,WUHU216HW,2013-04-07 09:08:00,
2013-04-07 05:13:00,27.0,15.7,30.28,NNE,23,0.0,0.4,62,0.00,,,0.00,WUHU216HW,2013-04-07 09:13:00,
2013-04-07 05:18:00,27.0,15.7,30.29,NNE,23,0.2,0.4,62,0.00,,,0.00,WUHU216HW,2013-04-07 09:18:00,
2013-04-07 05:23:00,27.0,16.0,30.28,NNE,23,0.7,0.9,63,0.00,,,0.00,WUHU216HW,2013-04-07 09:23:00,
2013-04-07 05:28:00,26.8,15.8,30.28,NNE,23,0.4,0.9,63,0.00,,,0.00,WUHU216HW,2013-04-07 09:28:00,
2013-04-07 05:33:00,26.8,15.8,30.29,NNE,23,0.0,0.7,63,0.00,,,0.00,WUHU216HW,2013-04-07 09:33:00,
2013-04-07 05:38:00,26.6,16.0,30.29,North,0,0.4,1.3,64,0.00,,,0.00,WUHU216HW,2013-04-07 09:38:00,
2013-04-07 05:43:00,26.6,16.0,30.29,North,0,0.0,1.3,64,0.00,,,0.00,WUHU216HW,2013-04-07 09:43:00,
2013-04-07 05:48:00,26.6,15.7,30.29,North,0,0.0,0.4,63,0.00,,,0.00,WUHU216HW,2013-04-07 09:48:00,
2013-04-07 05:53:00,26.6,16.0,30.29,NNE,23,1.1,1.1,64,0.00,,,0.00,WUHU216HW,2013-04-07 09:53:00,
2013-04-07 05:58:00,26.5,16.2,30.28,NNE,23,0.7,1.8,65,0.00,,,0.00,WUHU216HW,2013-04-07 09:58:00,
2013-04-07 06:03:00,26.3,16.0,30.29,NNE,23,0.7,1.8,65,0.00,,,0.00,WUHU216HW,2013-04-07 10:03:00,
2013-04-07 06:08:00,26.3,16.0,30.29,NNE,23,0.4,1.1,65,0.00,,,0.00,WUHU216HW,2013-04-07 10:08:00,
2013-04-07 06:13:00,26.3,16.0,30.29,NNE,23,0.0,0.7,65,0.00,,,0.00,WUHU216HW,2013-04-07 10:13:00,
2013-04-07 06:18:00,26.3,16.0,30.29,NNE,23,0.2,0.4,65,0.00,,,0.00,WUHU216HW,2013-04-07 10:18:00,
2013-04-07 06:23:00,26.3,16.0,30.29,NNE,23,0.0,0.2,65,0.00,,,0.00,WUHU216HW,2013-04-07 10:23:00,
2013-04-07 06:28:00,26.3,16.4,30.29,NNE,23,0.0,0.2,66,0.00,,,0.00,WUHU216HW,2013-04-07 10:28:00,
2013-04-07 06:33:00,26.6,16.7,30.30,East,90,0.2,0.4,66,0.00,,,0.00,WUHU216HW,2013-04-07 10:33:00,
2013-04-07 06:38:00,26.6,16.7,30.30,NNE,23,0.0,0.4,66,0.00,,,0.00,WUHU216HW,2013-04-07 10:38:00,
2013-04-07 06:43:00,26.8,16.9,30.30,NNE,23,0.2,0.7,66,0.00,,,0.00,WUHU216HW,2013-04-07 10:43:00,
2013-04-07 06:48:00,27.0,17.8,30.30,NNE,23,0.0,0.7,68,0.00,,,0.00,WUHU216HW,2013-04-07 10:48:00,
2013-04-07 06:53:00,27.2,19.0,30.30,SW,225,1.1,1.1,71,0.00,,,0.00,WUHU216HW,2013-04-07 10:53:00,
2013-04-07 06:58:00,27.5,19.1,30.30,SW,225,0.4,1.1,70,0.00,,,0.00,WUHU216HW,2013-04-07 10:58:00,
2013-04-07 07:03:00,27.7,18.9,30.30,SSW,203,0.0,1.1,69,0.00,,,0.00,WUHU216HW,2013-04-07 11:03:00,
2013-04-07 07:09:00,27.7,17.8,30.31,SSW,203,0.0,1.1,66,0.00,,,0.00,WUHU216HW,2013-04-07 11:09:00,
2013-04-07 07:14:00,27.9,18.0,30.31,SSW,203,0.0,0.9,66,0.00,,,0.00,WUHU216HW,2013-04-07 11:14:00,
2013-04-07 07:19:00,28.3,18.4,30.31,SE,135,1.1,1.3,66,0.00,,,0.00,WUHU216HW,2013-04-07 11:19:00,
2013-04-07 07:24:00,28.4,18.5,30.31,NE,45,1.1,1.8,66,0.00,,,0.00,WUHU216HW,2013-04-07 11:24:00,
2013-04-07 07:30:00,28.6,18.7,30.31,NE,45,0.4,1.8,66,0.00,,,0.00,WUHU216HW,2013-04-07 11:30:00,
2013-04-07 07:35:00,29.0,18.6,30.31,NE,45,1.1,1.8,65,0.00,,,0.00,WUHU216HW,2013-04-07 11:35:00,
2013-04-07 07:40:00,29.2,18.8,30.31,NE,45,0.4,1.8,65,0.00,,,0.00,WUHU216HW,2013-04-07 11:40:00,
2013-04-07 07:45:00,29.5,19.5,30.31,NE,45,0.4,1.1,66,0.00,,,0.00,WUHU216HW,2013-04-07 11:45:00,
2013-04-07 07:50:00,29.9,19.4,30.31,NNE,23,1.6,2.2,65,0.00,,,0.00,WUHU216HW,2013-04-07 11:50:00,
2013-04-07 07:55:00,30.4,19.6,30.32,NW,315,0.0,2.2,64,0.00,,,0.00,WUHU216HW,2013-04-07 11:55:00,
2013-04-07 08:00:00,31.1,20.0,30.32,East,90,0.2,1.1,63,0.00,,,0.00,WUHU216HW,2013-04-07 12:00:00,
2013-04-07 08:05:00,31.9,20.7,30.31,ENE,68,0.9,1.3,63,0.00,,,0.00,WUHU216HW,2013-04-07 12:05:00,
2013-04-07 08:10:00,32.8,21.2,30.31,SW,225,1.8,1.8,62,0.00,,,0.00,WUHU216HW,2013-04-07 12:10:00,
2013-04-07 08:15:00,33.7,22.3,30.31,SSE,158,1.6,2.2,63,0.00,,,0.00,WUHU216HW,2013-04-07 12:15:00,
2013-04-07 08:20:00,34.2,22.5,30.31,South,180,0.7,2.5,62,0.00,,,0.00,WUHU216HW,2013-04-07 12:20:00,
2013-04-07 08:26:00,34.7,22.7,30.31,SSE,158,1.1,2.9,61,0.00,,,0.00,WUHU216HW,2013-04-07 12:26:00,
2013-04-07 08:31:00,35.3,23.6,30.31,SSW,203,2.5,2.9,62,0.00,,,0.00,WUHU216HW,2013-04-07 12:31:00,
2013-04-07 08:36:00,35.8,23.4,30.31,SW,225,2.7,3.4,60,0.00,,,0.00,WUHU216HW,2013-04-07 12:36:00,
2013-04-07 08:41:00,36.4,23.4,30.30,SSE,158,0.9,3.4,59,0.00,,,0.00,WUHU216HW,2013-04-07 12:41:00,
2013-04-07 08:46:00,37.1,24.1,30.30,SSW,203,1.6,3.4,59,0.00,,,0.00,WUHU216HW,2013-04-07 12:46:00,
2013-04-07 08:51:00,37.8,23.9,30.30,SSE,158,4.0,4.0,57,0.00,,,0.00,WUHU216HW,2013-04-07 12:51:00,
2013-04-07 08:56:00,38.5,24.1,30.30,ESE,113,1.1,4.5,56,0.00,,,0.00,WUHU216HW,2013-04-07 12:56:00,
2013-04-07 09:01:00,39.2,23.9,30.29,SSW,203,2.2,4.5,54,0.00,,,0.00,WUHU216HW,2013-04-07 13:01:00,
2013-04-07 09:06:00,39.6,23.8,30.29,SE,135,2.5,5.8,53,0.00,,,0.00,WUHU216HW,2013-04-07 13:06:00,
2013-04-07 09:11:00,39.8,23.5,30.29,SSW,203,1.6,5.8,52,0.00,,,0.00,WUHU216HW,2013-04-07 13:11:00,
2013-04-07 09:16:00,40.1,23.0,30.29,SW,225,3.1,5.4,50,0.00,,,0.00,WUHU216HW,2013-04-07 13:16:00,
2013-04-07 09:21:00,40.7,23.4,30.28,SSW,203,3.1,4.0,50,0.00,,,0.00,WUHU216HW,2013-04-07 13:21:00,
2013-04-07 09:26:00,41.6,23.8,30.28,SW,225,3.6,4.7,49,0.00,,,0.00,WUHU216HW,2013-04-07 13:26:00,
2013-04-07 09:31:00,42.5,23.6,30.28,WSW,248,5.4,7.8,47,0.00,,,0.00,WUHU216HW,2013-04-07 13:31:00,
2013-04-07 09:36:00,43.2,23.2,30.28,SW,225,4.7,7.8,45,0.00,,,0.00,WUHU216HW,2013-04-07 13:36:00,
2013-04-07 09:41:00,44.1,21.9,30.27,SW,225,4.0,8.5,41,0.00,,,0.00,WUHU216HW,2013-04-07 13:41:00,
2013-04-07 09:47:00,45.0,21.4,30.27,SW,225,5.6,8.5,39,0.00,,,0.00,WUHU216HW,2013-04-07 13:47:00,
2013-04-07 09:52:00,45.5,20.6,30.27,SSW,203,9.8,9.8,37,0.00,,,0.00,WUHU216HW,2013-04-07 13:52:00,
2013-04-07 09:57:00,46.1,19.7,30.26,SSW,203,5.4,9.8,35,0.00,,,0.00,WUHU216HW,2013-04-07 13:57:00,
2013-04-07 10:02:00,46.4,20.1,30.26,SW,225,8.5,9.8,35,0.00,,,0.00,WUHU216HW,2013-04-07 14:02:00,
2013-04-07 10:07:00,46.8,20.4,30.26,SSW,203,5.8,12.1,35,0.00,,,0.00,WUHU216HW,2013-04-07 14:07:00,
2013-04-07 10:12:00,47.2,19.4,30.26,SW,225,8.5,12.1,33,0.00,,,0.00,WUHU216HW,2013-04-07 14:12:00,
2013-04-07 10:17:00,47.5,19.7,30.26,SSW,203,11.0,12.5,33,0.00,,,0.00,WUHU216HW,2013-04-07 14:17:00,
2013-04-07 10:22:00,47.7,19.9,30.25,South,180,8.3,12.8,33,0.00,,,0.00,WUHU216HW,2013-04-07 14:22:00,
2013-04-07 10:27:00,48.6,21.3,30.25,SSW,203,4.3,12.8,34,0.00,,,0.00,WUHU216HW,2013-04-07 14:27:00,
2013-04-07 10:32:00,49.5,20.1,30.25,SW,225,14.1,14.1,31,0.00,,,0.00,WUHU216HW,2013-04-07 14:32:00,
2013-04-07 10:37:00,49.7,20.2,30.24,SW,225,7.4,14.1,31,0.00,,,0.00,WUHU216HW,2013-04-07 14:37:00,
2013-04-07 10:42:00,49.1,19.7,30.24,SW,225,11.6,13.0,31,0.00,,,0.00,WUHU216HW,2013-04-07 14:42:00,
2013-04-07 10:47:00,48.6,20.7,30.24,SSW,203,5.4,13.0,33,0.00,,,0.00,WUHU216HW,2013-04-07 14:47:00,
2013-04-07 10:52:00,48.4,20.5,30.23,SW,225,6.7,15.4,33,0.00,,,0.00,WUHU216HW,2013-04-07 14:52:00,
2013-04-07 10:57:00,48.2,21.1,30.23,SW,225,7.8,15.4,34,0.00,,,0.00,WUHU216HW,2013-04-07 14:57:00,
2013-04-07 11:02:00,48.1,20.9,30.23,SW,225,6.5,13.4,34,0.00,,,0.00,WUHU216HW,2013-04-07 15:02:00,
2013-04-07 11:07:00,48.1,20.9,30.23,WSW,248,5.4,12.5,34,0.00,,,0.00,WUHU216HW,2013-04-07 15:07:00,
2013-04-07 11:12:00,47.9,22.1,30.23,SSW,203,8.5,12.5,36,0.00,,,0.00,WUHU216HW,2013-04-07 15:12:00,
2013-04-07 11:17:00,47.9,22.1,30.22,SW,225,8.5,10.5,36,0.00,,,0.00,WUHU216HW,2013-04-07 15:17:00,
2013-04-07 11:22:00,47.9,22.1,30.22,SW,225,7.8,16.1,36,0.00,,,0.00,WUHU216HW,2013-04-07 15:22:00,
2013-04-07 11:27:00,47.7,21.9,30.21,SSW,203,9.8,16.1,36,0.00,,,0.00,WUHU216HW,2013-04-07 15:27:00,
2013-04-07 11:32:00,47.3,22.2,30.21,SSW,203,8.5,14.3,37,0.00,,,0.00,WUHU216HW,2013-04-07 15:32:00,
2013-04-07 11:37:00,47.5,22.4,30.21,SSW,203,7.8,12.3,37,0.00,,,0.00,WUHU216HW,2013-04-07 15:37:00,
2013-04-07 11:42:00,48.1,22.2,30.20,SW,225,6.7,14.3,36,0.00,,,0.00,WUHU216HW,2013-04-07 15:42:00,
2013-04-07 11:47:00,48.4,22.5,30.20,SW,225,7.2,14.3,36,0.00,,,0.00,WUHU216HW,2013-04-07 15:47:00,
2013-04-07 11:52:00,49.3,22.0,30.19,SW,225,10.7,11.4,34,0.00,,,0.00,WUHU216HW,2013-04-07 15:52:00,
2013-04-07 11:57:00,50.2,22.1,30.19,SW,225,6.0,10.7,33,0.00,,,0.00,WUHU216HW,2013-04-07 15:57:00,
2013-04-07 12:02:00,50.8,21.8,30.19,SSW,203,6.3,15.0,32,0.00,,,0.00,WUHU216HW,2013-04-07 16:02:00,
2013-04-07 12:07:00,51.1,21.4,30.18,South,180,10.5,15.0,31,0.00,,,0.00,WUHU216HW,2013-04-07 16:07:00,
2013-04-07 12:12:00,51.1,21.4,30.18,SW,225,14.8,14.8,31,0.00,,,0.00,WUHU216HW,2013-04-07 16:12:00,
2013-04-07 12:17:00,50.9,21.3,30.18,SSW,203,6.7,17.0,31,0.00,,,0.00,WUHU216HW,2013-04-07 16:17:00,
2013-04-07 12:22:00,51.5,21.1,30.18,SW,225,8.5,17.9,30,0.00,,,0.00,WUHU216HW,2013-04-07 16:22:00,
2013-04-07 12:27:00,51.7,21.2,30.17,SSW,203,11.6,17.9,30,0.00,,,0.00,WUHU216HW,2013-04-07 16:27:00,
2013-04-07 12:32:00,51.5,21.8,30.16,SSW,203,18.1,18.1,31,0.00,,,0.00,WUHU216HW,2013-04-07 16:32:00,
2013-04-07 12:37:00,51.5,21.8,30.16,SSW,203,15.2,18.1,31,0.00,,,0.00,WUHU216HW,2013-04-07 16:37:00,
2013-04-07 12:42:00,51.7,22.6,30.16,SSW,203,9.2,18.1,32,0.00,,,0.00,WUHU216HW,2013-04-07 16:42:00,
2013-04-07 12:48:00,52.2,23.1,30.15,SE,135,6.5,15.4,32,0.00,,,0.00,WUHU216HW,2013-04-07 16:48:00,
2013-04-07 12:53:00,52.7,23.6,30.14,SSW,203,9.8,13.6,32,0.00,,,0.00,WUHU216HW,2013-04-07 16:53:00,
2013-04-07 12:58:00,52.9,23.8,30.14,SW,225,12.5,14.8,32,0.00,,,0.00,WUHU216HW,2013-04-07 16:58:00,
2013-04-07 13:03:00,52.9,23.0,30.13,SW,225,11.0,14.8,31,0.00,,,0.00,WUHU216HW,2013-04-07 17:03:00,
2013-04-07 13:08:00,52.7,23.0,30.13,SW,225,6.7,14.5,31,0.00,,,0.00,WUHU216HW,2013-04-07 17:08:00,
2013-04-07 13:13:00,52.9,23.0,30.13,SW,225,4.9,14.5,31,0.00,,,0.00,WUHU216HW,2013-04-07 17:13:00,
2013-04-07 13:18:00,52.9,23.0,30.12,SW,225,7.6,13.4,31,0.00,,,0.00,WUHU216HW,2013-04-07 17:18:00,
2013-04-07 13:23:00,53.3,23.4,30.12,SSW,203,5.8,13.4,31,0.00,,,0.00,WUHU216HW,2013-04-07 17:23:00,
2013-04-07 13:28:00,53.8,23.9,30.11,SSW,203,11.0,12.1,31,0.00,,,0.00,WUHU216HW,2013-04-07 17:28:00,
2013-04-07 13:33:00,54.2,22.5,30.11,SW,225,8.3,13.6,29,0.00,,,0.00,WUHU216HW,2013-04-07 17:33:00,
2013-04-07 13:38:00,54.5,21.9,30.11,SSE,158,7.6,21.3,28,0.00,,,0.00,WUHU216HW,2013-04-07 17:38:00,
2013-04-07 13:43:00,54.7,21.1,30.11,SSW,203,13.4,21.3,27,0.00,,,0.00,WUHU216HW,2013-04-07 17:43:00,
2013-04-07 13:48:00,54.9,21.3,30.10,SSE,158,9.8,19.5,27,0.00,,,0.00,WUHU216HW,2013-04-07 17:48:00,
2013-04-07 13:53:00,55.3,21.5,30.10,SSW,203,12.1,19.5,27,0.00,,,0.00,WUHU216HW,2013-04-07 17:53:00,
2013-04-07 13:58:00,54.9,21.3,30.10,SW,225,9.2,17.9,27,0.00,,,0.00,WUHU216HW,2013-04-07 17:58:00,
2013-04-07 14:03:00,55.1,21.3,30.10,SSW,203,12.3,18.6,27,0.00,,,0.00,WUHU216HW,2013-04-07 18:03:00,
2013-04-07 14:09:00,55.4,21.7,30.09,SSE,158,12.8,20.1,27,0.00,,,0.00,WUHU216HW,2013-04-07 18:09:00,
2013-04-07 14:14:00,55.3,21.5,30.09,SSW,203,10.5,20.1,27,0.00,,,0.00,WUHU216HW,2013-04-07 18:14:00,
2013-04-07 14:19:00,55.3,21.5,30.09,SW,225,11.9,19.2,27,0.00,,,0.00,WUHU216HW,2013-04-07 18:19:00,
2013-04-07 14:24:00,56.2,23.2,30.09,SW,225,7.6,15.7,28,0.00,,,0.00,WUHU216HW,2013-04-07 18:24:00,
2013-04-07 14:29:00,56.3,23.4,30.09,SSW,203,6.5,17.0,28,0.00,,,0.00,WUHU216HW,2013-04-07 18:29:00,
2013-04-07 14:34:00,56.9,23.9,30.08,SSW,203,11.6,17.0,28,0.00,,,0.00,WUHU216HW,2013-04-07 18:34:00,
2013-04-07 14:40:00,57.1,24.0,30.07,SSE,158,12.3,15.0,28,0.00,,,0.00,WUHU216HW,2013-04-07 18:40:00,
2013-04-07 14:45:00,56.9,24.9,30.07,South,180,9.4,20.6,29,0.00,,,0.00,WUHU216HW,2013-04-07 18:45:00,
2013-04-07 14:50:00,56.3,24.3,30.06,SW,225,12.5,20.6,29,0.00,,,0.00,WUHU216HW,2013-04-07 18:50:00,
2013-04-07 14:55:00,56.5,25.5,30.06,SW,225,10.7,17.4,30,0.00,,,0.00,WUHU216HW,2013-04-07 18:55:00,
2013-04-07 15:00:00,57.1,25.9,30.06,SSW,203,12.8,19.2,30,0.00,,,0.00,WUHU216HW,2013-04-07 19:00:00,
2013-04-07 15:05:00,56.9,25.7,30.06,West,270,15.9,19.2,30,0.00,,,0.00,WUHU216HW,2013-04-07 19:05:00,
2013-04-07 15:10:00,56.2,26.6,30.06,SSW,203,9.2,18.6,32,0.00,,,0.00,WUHU216HW,2013-04-07 19:10:00,
2013-04-07 15:15:00,56.2,26.6,30.06,SSW,203,13.0,18.6,32,0.00,,,0.00,WUHU216HW,2013-04-07 19:15:00,
2013-04-07 15:20:00,56.5,26.8,30.04,SW,225,12.1,21.5,32,0.00,,,0.00,WUHU216HW,2013-04-07 19:20:00,
2013-04-07 15:25:00,56.9,26.5,30.04,SW,225,12.5,21.5,31,0.00,,,0.00,WUHU216HW,2013-04-07 19:25:00,
2013-04-07 15:31:00,56.9,26.5,30.04,SSW,203,10.5,17.0,31,0.00,,,0.00,WUHU216HW,2013-04-07 19:31:00,
2013-04-07 15:36:00,56.9,27.2,30.04,South,180,16.3,21.5,32,0.00,,,0.00,WUHU216HW,2013-04-07 19:36:00,
2013-04-07 15:41:00,57.1,27.4,30.04,SW,225,13.4,21.5,32,0.00,,,0.00,WUHU216HW,2013-04-07 19:41:00,
2013-04-07 15:46:00,56.7,27.0,30.04,SW,225,17.0,20.1,32,0.00,,,0.00,WUHU216HW,2013-04-07 19:46:00,
2013-04-07 15:51:00,56.3,27.4,30.03,SSW,203,8.9,18.3,33,0.00,,,0.00,WUHU216HW,2013-04-07 19:51:00,
2013-04-07 15:56:00,56.2,27.9,30.03,SW,225,8.9,17.9,34,0.00,,,0.00,WUHU216HW,2013-04-07 19:56:00,
2013-04-07 16:01:00,56.3,28.1,30.02,WSW,248,7.4,16.1,34,0.00,,,0.00,WUHU216HW,2013-04-07 20:01:00,
2013-04-07 16:06:00,56.5,28.3,30.03,SSW,203,12.3,16.1,34,0.00,,,0.00,WUHU216HW,2013-04-07 20:06:00,
2013-04-07 16:11:00,56.3,28.1,30.03,SW,225,10.5,16.8,34,0.00,,,0.00,WUHU216HW,2013-04-07 20:11:00,
2013-04-07 16:16:00,55.8,29.0,30.02,SW,225,8.9,18.6,36,0.00,,,0.00,WUHU216HW,2013-04-07 20:16:00,
2013-04-07 16:21:00,55.8,29.7,30.02,SW,225,8.7,18.6,37,0.00,,,0.00,WUHU216HW,2013-04-07 20:21:00,
2013-04-07 16:26:00,56.2,30.1,30.01,SW,225,9.2,16.3,37,0.00,,,0.00,WUHU216HW,2013-04-07 20:26:00,
2013-04-07 16:31:00,55.8,30.4,30.01,SW,225,14.1,17.7,38,0.00,,,0.00,WUHU216HW,2013-04-07 20:31:00,
2013-04-07 16:36:00,55.6,30.2,30.01,SSE,158,12.1,17.7,38,0.00,,,0.00,WUHU216HW,2013-04-07 20:36:00,
2013-04-07 16:41:00,55.6,31.0,30.01,SW,225,11.0,17.9,39,0.00,,,0.00,WUHU216HW,2013-04-07 20:41:00,
2013-04-07 16:47:00,55.4,31.5,30.01,SW,225,15.7,17.9,40,0.00,,,0.00,WUHU216HW,2013-04-07 20:47:00,
2013-04-07 16:52:00,55.4,31.5,30.00,SSW,203,9.2,19.5,40,0.00,,,0.00,WUHU216HW,2013-04-07 20:52:00,
2013-04-07 16:57:00,55.1,31.8,29.99,SSW,203,8.5,19.5,41,0.00,,,0.00,WUHU216HW,2013-04-07 20:57:00,
2013-04-07 17:02:00,55.1,31.8,29.99,SW,225,6.9,18.6,41,0.00,,,0.00,WUHU216HW,2013-04-07 21:02:00,
2013-04-07 17:07:00,55.3,32.5,29.99,SSE,158,8.7,18.6,42,0.00,,,0.00,WUHU216HW,2013-04-07 21:07:00,
2013-04-07 17:12:00,55.1,32.9,29.99,SSW,203,9.2,13.4,43,0.00,,,0.00,WUHU216HW,2013-04-07 21:12:00,
2013-04-07 17:17:00,55.1,32.3,29.99,SW,225,10.7,17.4,42,0.00,,,0.00,WUHU216HW,2013-04-07 21:17:00,
2013-04-07 17:22:00,54.7,32.5,29.99,SSW,203,7.8,17.4,43,0.00,,,0.00,WUHU216HW,2013-04-07 21:22:00,
2013-04-07 17:27:00,54.7,33.1,29.99,SW,225,8.1,13.4,44,0.00,,,0.00,WUHU216HW,2013-04-07 21:27:00,
2013-04-07 17:32:00,54.4,33.3,29.99,SW,225,9.8,13.4,45,0.00,,,0.00,WUHU216HW,2013-04-07 21:32:00,
2013-04-07 17:37:00,54.0,33.6,29.99,SW,225,9.2,13.4,46,0.00,,,0.00,WUHU216HW,2013-04-07 21:37:00,
2013-04-07 17:42:00,53.8,33.4,30.00,SSW,203,11.4,17.2,46,0.00,,,0.00,WUHU216HW,2013-04-07 21:42:00,
2013-04-07 17:47:00,53.8,33.4,30.00,SW,225,11.9,18.1,46,0.00,,,0.00,WUHU216HW,2013-04-07 21:47:00,
2013-04-07 17:52:00,53.8,33.4,29.99,SSW,203,5.1,18.1,46,0.00,,,0.00,WUHU216HW,2013-04-07 21:52:00,
2013-04-07 17:57:00,53.6,33.8,30.00,SSW,203,11.2,15.0,47,0.00,,,0.00,WUHU216HW,2013-04-07 21:57:00,
2013-04-07 18:02:00,53.6,33.8,30.00,SSW,203,6.3,14.8,47,0.00,,,0.00,WUHU216HW,2013-04-07 22:02:00,
2013-04-07 18:07:00,53.5,33.7,30.01,SW,225,8.7,14.3,47,0.00,,,0.00,WUHU216HW,2013-04-07 22:07:00,
2013-04-07 18:12:00,53.3,34.0,30.01,SW,225,9.2,14.3,48,0.00,,,0.00,WUHU216HW,2013-04-07 22:12:00,
2013-04-07 18:17:00,53.1,33.8,30.02,SW,225,7.8,14.3,48,0.00,,,0.00,WUHU216HW,2013-04-07 22:17:00,
2013-04-07 18:22:00,53.1,33.8,30.02,SW,225,6.3,14.3,48,0.00,,,0.00,WUHU216HW,2013-04-07 22:22:00,
2013-04-07 18:27:00,52.9,33.7,30.02,SW,225,5.4,12.5,48,0.00,,,0.00,WUHU216HW,2013-04-07 22:27:00,
2013-04-07 18:32:00,52.9,34.3,30.01,SW,225,4.9,12.5,49,0.00,,,0.00,WUHU216HW,2013-04-07 22:32:00,
2013-04-07 18:37:00,52.6,33.9,30.02,SSW,203,5.8,11.6,49,0.00,,,0.00,WUHU216HW,2013-04-07 22:37:00,
2013-04-07 18:42:00,52.6,33.9,30.03,SSW,203,9.8,9.8,49,0.00,,,0.00,WUHU216HW,2013-04-07 22:42:00,
2013-04-07 18:47:00,52.6,33.9,30.02,SW,225,7.2,12.3,49,0.00,,,0.00,WUHU216HW,2013-04-07 22:47:00,
2013-04-07 18:52:00,52.4,33.8,30.02,SW,225,5.6,12.3,49,0.00,,,0.00,WUHU216HW,2013-04-07 22:52:00,
2013-04-07 18:57:00,52.2,34.2,30.01,SW,225,7.6,8.9,50,0.00,,,0.00,WUHU216HW,2013-04-07 22:57:00,
2013-04-07 19:02:00,52.4,33.8,30.01,SW,225,8.3,12.3,49,0.00,,,0.00,WUHU216HW,2013-04-07 23:02:00,
2013-04-07 19:07:00,52.2,34.7,30.01,SW,225,9.8,16.6,51,0.00,,,0.00,WUHU216HW,2013-04-07 23:07:00,
2013-04-07 19:13:00,52.0,34.9,30.02,SSW,203,8.5,16.6,52,0.00,,,0.00,WUHU216HW,2013-04-07 23:13:00,
2013-04-07 19:18:00,51.8,34.3,30.01,SW,225,6.9,15.0,51,0.00,,,0.00,WUHU216HW,2013-04-07 23:18:00,
2013-04-07 19:23:00,51.7,34.1,30.01,SSW,203,5.4,15.0,51,0.00,,,0.00,WUHU216HW,2013-04-07 23:23:00,
2013-04-07 19:28:00,51.5,33.9,30.01,SW,225,8.5,13.9,51,0.00,,,0.00,WUHU216HW,2013-04-07 23:28:00,
2013-04-07 19:33:00,51.5,34.4,30.01,SW,225,7.6,12.5,52,0.00,,,0.00,WUHU216HW,2013-04-07 23:33:00,
2013-04-07 19:38:00,51.5,34.4,30.01,SW,225,9.4,12.5,52,0.00,,,0.00,WUHU216HW,2013-04-07 23:38:00,
2013-04-07 19:43:00,51.1,34.1,30.02,SSW,203,8.7,11.2,52,0.00,,,0.00,WUHU216HW,2013-04-07 23:43:00,
2013-04-07 19:48:00,51.1,34.1,30.02,SW,225,12.1,12.8,52,0.00,,,0.00,WUHU216HW,2013-04-07 23:48:00,
2013-04-07 19:53:00,51.1,34.1,30.02,SW,225,9.2,12.8,52,0.00,,,0.00,WUHU216HW,2013-04-07 23:53:00,
2013-04-07 19:58:00,50.9,33.9,30.02,SW,225,6.3,12.5,52,0.00,,,0.00,WUHU216HW,2013-04-07 23:58:00,
2013-04-07 20:03:00,50.8,34.2,30.02,SW,225,6.9,14.3,53,0.00,,,0.00,WUHU216HW,2013-04-08 00:03:00,
2013-04-07 20:08:00,50.6,34.5,30.02,SSW,203,6.9,14.3,54,0.00,,,0.00,WUHU216HW,2013-04-08 00:08:00,
2013-04-07 20:13:00,50.4,34.4,30.02,SW,225,7.4,11.9,54,0.00,,,0.00,WUHU216HW,2013-04-08 00:13:00,
2013-04-07 20:18:00,50.2,34.7,30.02,SW,225,8.5,13.4,55,0.00,,,0.00,WUHU216HW,2013-04-08 00:18:00,
2013-04-07 20:23:00,50.0,34.9,30.01,SSW,203,11.9,13.6,56,0.00,,,0.00,WUHU216HW,2013-04-08 00:23:00,
2013-04-07 20:28:00,50.0,34.9,30.01,SSW,203,4.7,13.6,56,0.00,,,0.00,WUHU216HW,2013-04-08 00:28:00,
2013-04-07 20:33:00,49.9,35.2,30.02,WSW,248,5.4,12.3,57,0.00,,,0.00,WUHU216HW,2013-04-08 00:33:00,
2013-04-07 20:38:00,49.7,35.5,30.02,South,180,3.6,11.4,58,0.00,,,0.00,WUHU216HW,2013-04-08 00:38:00,
2013-04-07 20:43:00,49.5,35.8,30.02,WSW,248,6.3,9.2,59,0.00,,,0.00,WUHU216HW,2013-04-08 00:43:00,
2013-04-07 20:48:00,49.5,35.8,30.02,SSW,203,6.3,9.2,59,0.00,,,0.00,WUHU216HW,2013-04-08 00:48:00,
2013-04-07 20:53:00,49.3,36.1,30.01,SW,225,6.9,10.5,60,0.00,,,0.00,WUHU216HW,2013-04-08 00:53:00,
2013-04-07 20:58:00,49.3,36.5,30.01,SSW,203,6.7,10.5,61,0.00,,,0.00,WUHU216HW,2013-04-08 00:58:00,
2013-04-07 21:03:00,49.1,36.3,30.02,SW,225,6.9,6.9,61,0.00,,,0.00,WUHU216HW,2013-04-08 01:03:00,
2013-04-07 21:08:00,49.0,36.6,30.02,SW,225,4.7,8.5,62,0.00,,,0.00,WUHU216HW,2013-04-08 01:08:00,
2013-04-07 21:13:00,49.0,36.9,30.03,SW,225,3.8,8.5,63,0.00,,,0.00,WUHU216HW,2013-04-08 01:13:00,
2013-04-07 21:18:00,48.8,36.7,30.02,SSW,203,2.5,7.6,63,0.00,,,0.00,WUHU216HW,2013-04-08 01:18:00,
2013-04-07 21:23:00,48.6,36.5,30.02,SSW,203,5.8,7.4,63,0.00,,,0.00,WUHU216HW,2013-04-08 01:23:00,
2013-04-07 21:28:00,48.6,36.5,30.02,SW,225,4.0,9.8,63,0.00,,,0.00,WUHU216HW,2013-04-08 01:28:00,
2013-04-07 21:33:00,48.6,37.0,30.02,SSW,203,3.4,9.8,64,0.00,,,0.00,WUHU216HW,2013-04-08 01:33:00,
2013-04-07 21:38:00,48.6,37.4,30.02,SSE,158,5.8,8.9,65,0.00,,,0.00,WUHU216HW,2013-04-08 01:38:00,
2013-04-07 21:43:00,48.6,37.4,30.01,SW,225,5.1,8.9,65,0.00,,,0.00,WUHU216HW,2013-04-08 01:43:00,
2013-04-07 21:48:00,48.2,37.0,30.00,SW,225,4.5,8.3,65,0.00,,,0.00,WUHU216HW,2013-04-08 01:48:00,
2013-04-07 21:53:00,48.2,37.4,30.01,SSW,203,6.9,8.5,66,0.00,,,0.00,WUHU216HW,2013-04-08 01:53:00,
2013-04-07 21:58:00,48.1,37.6,30.01,SSW,203,8.5,10.3,67,0.00,,,0.00,WUHU216HW,2013-04-08 01:58:00,
2013-04-07 22:03:00,48.1,37.6,30.02,SSW,203,3.4,10.3,67,0.00,,,0.00,WUHU216HW,2013-04-08 02:03:00,
2013-04-07 22:08:00,47.9,37.8,30.02,SW,225,6.3,8.3,68,0.00,,,0.00,WUHU216HW,2013-04-08 02:08:00,
2013-04-07 22:13:00,47.9,37.8,30.02,SW,225,4.3,8.3,68,0.00,,,0.00,WUHU216HW,2013-04-08 02:13:00,
2013-04-07 22:18:00,47.9,37.8,30.01,SSW,203,9.2,9.2,68,0.00,,,0.00,WUHU216HW,2013-04-08 02:18:00,
2013-04-07 22:23:00,47.7,37.6,30.00,South,180,5.4,9.2,68,0.00,,,0.00,WUHU216HW,2013-04-08 02:23:00,
2013-04-07 22:28:00,47.7,38.0,30.00,SSW,203,4.7,9.2,69,0.00,,,0.00,WUHU216HW,2013-04-08 02:28:00,
2013-04-07 22:33:00,47.5,37.9,30.00,SW,225,10.3,10.7,69,0.00,,,0.00,WUHU216HW,2013-04-08 02:33:00,
2013-04-07 22:39:00,47.5,38.3,30.00,South,180,4.5,10.7,70,0.00,,,0.00,WUHU216HW,2013-04-08 02:39:00,
2013-04-07 22:44:00,47.5,38.3,30.00,SW,225,4.3,7.6,70,0.00,,,0.00,WUHU216HW,2013-04-08 02:44:00,
2013-04-07 22:49:00,47.5,38.3,30.01,NNE,23,4.9,7.6,70,0.00,,,0.00,WUHU216HW,2013-04-08 02:49:00,
2013-04-07 22:54:00,47.3,38.4,30.00,SW,225,5.4,9.2,71,0.00,,,0.00,WUHU216HW,2013-04-08 02:54:00,
2013-04-07 22:59:00,47.3,38.4,30.00,SW,225,4.7,9.8,71,0.00,,,0.00,WUHU216HW,2013-04-08 02:59:00,
2013-04-07 23:04:00,47.3,38.4,30.00,SW,225,4.7,9.8,71,0.00,,,0.00,WUHU216HW,2013-04-08 03:04:00,
2013-04-07 23:09:00,47.3,38.4,29.99,South,180,5.8,10.5,71,0.00,,,0.00,WUHU216HW,2013-04-08 03:09:00,
2013-04-07 23:15:00,47.2,38.6,30.00,SSW,203,3.6,10.5,72,0.00,,,0.00,WUHU216HW,2013-04-08 03:15:00,
2013-04-07 23:20:00,47.2,38.6,30.00,South,180,6.5,9.6,72,0.00,,,0.00,WUHU216HW,2013-04-08 03:20:00,
2013-04-07 23:25:00,47.2,38.6,29.99,SW,225,7.6,8.5,72,0.00,,,0.00,WUHU216HW,2013-04-08 03:25:00,
2013-04-07 23:30:00,47.2,38.6,29.99,SW,225,6.9,8.1,72,0.00,,,0.00,WUHU216HW,2013-04-08 03:30:00,
2013-04-07 23:35:00,47.2,38.6,29.99,SW,225,4.9,14.5,72,0.00,,,0.00,WUHU216HW,2013-04-08 03:35:00,
2013-04-07 23:41:00,47.2,38.6,29.98,SW,225,7.8,14.5,72,0.00,,,0.00,WUHU216HW,2013-04-08 03:41:00,
2013-04-07 23:46:00,47.2,39.0,29.98,SW,225,6.3,11.0,73,0.00,,,0.00,WUHU216HW,2013-04-08 03:46:00,
2013-04-07 23:51:00,47.2,39.0,29.99,WSW,248,4.0,8.7,73,0.00,,,0.00,WUHU216HW,2013-04-08 03:51:00,
2013-04-07 23:56:00,47.0,38.8,29.99,South,180,4.7,7.6,73,0.00,,,0.00,WUHU216HW,2013-04-08 03:56:00,